Location: Arapsard?
(36.4417°N, 29.7416°E)
Time: 05:02:18
(UTC+00:00)

Daily predictions for brighter satellites

Satellite Brightness Start Highest point End
(mag) Time Altitude Azimuth Time Altitude Azimuth Time Altitude Azimuth
IDEFIX/ARIANE 42P 4.0 00:13:47 10° N 00:16:41 30° NNW 00:16:41 30° NNW
ISS -0.4 00:23:17 11° ENE 00:23:17 11° ENE 00:23:29 10° ENE
Envisat 3.7 00:17:01 10° NNE 00:21:15 49° ENE 00:21:15 49° ENE
Iridium 4 Rocket 4.3 00:23:28 44° NE 00:23:28 44° NE 00:27:11 10° N
H-2A R/B 4.4 00:31:28 24° NE 00:31:28 24° NE 00:33:38 10° NNE
Cosmos 1763 Rocket 4.1 00:33:22 50° NNW 00:33:22 50° NNW 00:37:27 10° NNE
ADEOS II 3.0 00:29:57 10° NNE 00:34:52 40° E 00:35:39 38° ESE
ADEOS Rocket 3.6 00:33:15 10° N 00:40:47 61° WNW 00:41:54 56° WSW
ALOS 2.7 00:37:34 10° NNE 00:41:29 56° ENE 00:41:29 56° ENE
CZ-2D R/B 2.2 00:37:46 10° NNE 00:43:02 70° ESE 00:43:17 69° ESE
USA 281 3.7 00:51:27 42° WNW 00:51:27 42° WNW 00:56:20 10° NW
DELTA 2 R/B (1) 4.2 00:52:27 42° SE 00:52:27 42° SE 00:57:24 10° E
SL-19 R/B 4.5 00:49:52 10° NNE 00:55:38 73° ESE 00:57:22 48° S
Cosmos 1354 Rocket 4.0 00:51:20 10° NNW 00:56:37 79° ENE 00:58:09 47° SSE
Cosmos 2360 Rocket 2.2 00:51:51 10° NNW 00:57:34 81° ENE 01:01:44 19° SSE
Cosmos 1503 Rocket 4.4 00:52:49 10° NNW 00:56:51 50° NW 00:56:51 50° NW
Cosmos 2333 Rocket 2.7 00:52:57 10° NNW 00:57:05 44° WNW 00:57:05 44° WNW
ATLAS 5 CENTAUR R/B 3.2 00:57:43 46° SSE 00:59:03 61° ESE 01:12:20 10° NE
Cosmos 540 Rocket 4.2 01:01:37 37° NW 01:01:37 37° NW 01:05:49 10° N
Cosmos 468 Rocket 3.9 01:06:35 64° W 01:06:51 66° WNW 01:12:08 10° NNE
Resurs 1-4 Rocket 2.2 01:06:41 10° N 01:11:52 55° WNW 01:12:17 54° W
Cosmos 2278 4.2 01:06:47 10° NW 01:11:11 42° WNW 01:11:11 42° WNW
H-2A R/B 3.9 01:09:14 10° NE 01:12:32 24° E 01:15:00 14° SE
Cosmos 2322 Rocket 2.0 01:07:12 10° NNW 01:12:49 69° WSW 01:15:03 37° S
CRYOSAT 2 4.5 01:18:22 24° SSE 01:21:16 74° E 01:26:09 10° N
Cosmos 1766 Rocket 3.4 01:19:15 10° N 01:23:36 86° W 01:24:44 49° S
H-2A R/B 2.1 01:21:29 10° N 01:26:34 60° WNW 01:27:57 45° SW
Cosmos 2219 Rocket 2.2 01:21:12 10° NNW 01:26:52 85° ENE 01:32:31 10° SSE
SL-16 R/B 3.8 01:22:58 10° NW 01:24:53 18° WNW 01:24:53 18° WNW
Meteor 1-11 Rocket 4.1 01:22:45 10° NNW 01:28:16 44° W 01:29:12 40° WSW
USA 267 4.3 01:24:48 10° NNE 01:30:29 33° NNW 01:34:01 20° WNW
SL-14 R/B 4.2 01:28:27 22° SSE 01:30:38 46° E 01:34:23 10° NNE
SL-4 R/B 2.5 01:31:48 10° NW 01:35:35 53° NE 01:39:14 10° ESE
ARGOS 3.3 01:31:18 10° NNE 01:36:41 73° ESE 01:40:53 17° S
METEOR-M 4.1 01:34:11 10° N 01:39:28 68° WNW 01:42:08 30° SSW
Gbstr 26 Del rocket 3.5 01:38:33 10° NW 01:42:10 49° NE 01:45:55 10° ESE
SL-08 R/B 4.5 01:46:29 10° N 01:52:51 88° W 01:59:11 10° S
Cosmos 372 Rocket 3.8 01:48:01 10° NNW 01:53:10 73° WSW 01:58:13 10° S
Meteor 2-4 Rocket 4.3 01:52:16 28° WSW 01:54:04 35° WNW 01:58:58 10° N
Cosmos 1655 Rocket 4.4 01:49:02 10° NNW 01:54:43 39° W 01:58:40 19° SSW
ISS -2.1 01:56:14 20° WNW 01:57:15 23° NNW 02:00:02 10° NNE
NOSS 3-4 (A) 3.9 01:51:45 10° NNW 01:58:56 84° WSW 02:07:18 10° SSE
NOSS 3-4 (C) 3.9 01:52:18 10° NNW 01:59:30 84° WSW 02:07:52 10° SSE
Cosmos 1066 Rocket 4.4 01:56:41 24° SW 01:59:39 46° WNW 02:04:48 10° N
Cosmos 1244 Rocket 4.4 01:53:36 10° NNW 01:59:45 65° W 02:05:50 10° S
USA 234 3.4 01:57:17 10° SE 02:03:49 80° NE 02:10:23 10° NW
Cosmos 1461 4.2 02:03:16 19° WNW 02:04:10 20° NW 02:07:01 10° N
Aureole 1 Rocket 3.8 01:59:58 10° NW 02:04:20 41° WSW 02:09:42 10° S
H-2A R/B 4.4 02:06:25 11° WNW 02:06:25 11° WNW 02:06:38 10° WNW
USA 307 4.5 02:04:54 10° SE 02:05:58 12° ESE 02:07:12 10° E
Cosmos 2084 Rocket 3.8 02:04:28 10° NW 02:08:26 40° WSW 02:12:24 10° S
Cosmos 1151 Rocket 2.9 02:04:26 10° S 02:08:38 86° W 02:12:52 10° N
AQUA 4.0 02:05:05 10° N 02:09:36 50° WNW 02:13:09 16° SW
Nadezhda 2 Rocket 4.4 02:03:47 10° NNW 02:09:46 62° W 02:15:45 10° S
S3M 4.2 02:05:20 10° S 02:11:41 80° E 02:18:01 10° N
Cosmos 2297 Rocket 2.4 02:06:31 10° SSW 02:12:07 72° ESE 02:17:45 10° NNE
Cosmos 1386 Rocket 4.4 02:07:52 10° N 02:14:02 82° W 02:20:17 10° S
ADEOS II 3.4 02:10:08 10° NNW 02:14:06 22° WNW 02:16:28 16° W
SL-16 R/B 2.5 02:10:03 10° S 02:16:17 76° WSW 02:22:33 10° NNW
Cosmos 1500 Rocket 3.8 02:12:47 10° N 02:17:12 72° E 02:21:36 10° SSE
ALOS 4.2 02:16:53 10° NW 02:18:25 12° WNW 02:19:31 11° WNW
CZ-2D R/B 3.9 02:19:47 10° NNW 02:22:23 14° WNW 02:24:32 11° W
EXPRESS MD2 3.5 02:23:25 13° SSW 02:25:19 38° SE 02:28:31 10° ENE
COSMOS 2428 2.8 02:20:11 10° NNW 02:25:55 83° ENE 02:31:35 10° SSE
Sich 1 3.4 02:25:33 10° NNW 02:29:23 37° W 02:33:11 10° SSW
Okean 3 Rocket 4.0 02:25:26 10° NNW 02:29:38 42° W 02:33:50 10° SSW
Cosmos 1758 3.2 02:29:33 10° NNW 02:33:05 51° W 02:36:35 10° S
Cosmos 1898 Rocket 3.9 02:29:19 10° NW 02:34:05 39° WSW 02:38:52 10° S
Cosmos 1743 Rocket 3.7 02:33:49 10° N 02:38:12 77° E 02:42:31 10° S
DELTA 2 R/B (1) 3.6 02:33:08 11° W 02:38:25 79° NNW 02:43:58 10° ENE
Cosmos 158 Rocket 4.0 02:33:14 10° SSW 02:38:27 87° WNW 02:43:48 10° NNE
Cosmos 1937 Rocket 3.6 02:33:44 10° NNW 02:38:43 50° WSW 02:43:39 10° S
Cosmos 1805 Rocket 3.6 02:34:27 10° NNW 02:38:45 58° W 02:43:00 10° S
Cosmos 2360 Rocket 3.9 02:39:07 10° W 02:40:42 11° W 02:42:17 10° WSW
H-2A R/B 3.3 02:44:39 10° NNW 02:47:38 21° WNW 02:50:35 10° WSW
